HISTORICAL SENSOR DATA

Sensor Data Report

DB LIVE
CURRENT TIME--:--:--
DEVICE NETWORK Gateway Status
13 ESP · realtime ~1s · history 60s
Weather WS-MOD-01
ONLINE
Actuator ACT-MOD-01
OFFLINE
Mainboard L3 MB-L3-01
ONLINE
Mainboard L5 MB-L5-01
ONLINE
Remote AC AC-REMOTE-01
ONLINE
PZEM L3-01 PWR-L3-01
OFFLINE
PZEM L3-02 PWR-L3-02
OFFLINE
PZEM L3-03 PWR-L3-03
OFFLINE
PZEM L3-04 PWR-L3-04
OFFLINE
PZEM L5-01 PWR-L5-01
ONLINE
PZEM L5-02 PWR-L5-02
ONLINE
PZEM L5-03 PWR-L5-03
OFFLINE
PZEM L5-04 PWR-L5-04
OFFLINE
REPORT FILTER

Periode & Sensor

DATABASE HISTORY
RESET
QUICK RANGE Hari ini 7 hari 30 hari
PERIODE09 Aug 2026sampai 07 Sep 2026
TOTAL DATA89,810sensor readings
MINIMUM-0.50sesuai filter
AVERAGE72.58sesuai filter
MAXIMUM32,564.20sesuai filter
REPORT RESULT

Data Sensor

09/08/2026 — 07/09/2026 EXPORT CSV
NOTANGGALWAKTUDEVICECHANNELSENSORVALUEUNIT
601 07/09/2026 05:17:00 MB-L5-01Mainboard Lantai 5 L5-SHT-03-T SHT20 3 Temperature 28.10 °C
602 07/09/2026 05:17:00 MB-L5-01Mainboard Lantai 5 L5-LUX-02 Illuminance / LUX 2 0.20 lux
603 07/09/2026 05:17:00 MB-L3-01Mainboard Lantai 3 L3-AI-01 Analog Input 1 3.12 V
604 07/09/2026 05:17:00 MB-L5-01Mainboard Lantai 5 L5-LUX-03 Illuminance / LUX 3 0.20 lux
605 07/09/2026 05:17:00 MB-L5-01Mainboard Lantai 5 L5-HFT-01 Heat Flow Temperature 1 22.30 °C
606 07/09/2026 05:16:00 MB-L3-01Mainboard Lantai 3 L3-LUX-02 Illuminance / LUX 2 0.20 lux
607 07/09/2026 05:16:00 WS-MOD-01Weather Station Module WS-RH Kelembapan Udara 83.40 %RH
608 07/09/2026 05:16:00 PWR-L5-01Power Meter L5 PZEM 01 PZEM-L5-01-VOLT PZEM L5-01 Voltage 224.70 V
609 07/09/2026 05:16:00 WS-MOD-01Weather Station Module WS-PRES Tekanan Udara 911.00 hPa
610 07/09/2026 05:16:00 MB-L5-01Mainboard Lantai 5 L5-ST-02 Surface Temperature 2 21.60 °C
611 07/09/2026 05:16:00 MB-L3-01Mainboard Lantai 3 L3-LUX-05 Illuminance / LUX 5 0.30 lux
612 07/09/2026 05:16:00 MB-L3-01Mainboard Lantai 3 L3-LUX-06 Illuminance / LUX 6 0.30 lux
613 07/09/2026 05:16:00 MB-L3-01Mainboard Lantai 3 L3-AI-03 Analog Input 3 3.12 V
614 07/09/2026 05:16:00 MB-L3-01Mainboard Lantai 3 L3-LUX-03 Illuminance / LUX 3 0.20 lux
615 07/09/2026 05:16:00 MB-L3-01Mainboard Lantai 3 L3-SHT-03-RH SHT20 3 Humidity 46.30 %RH
616 07/09/2026 05:16:00 MB-L5-01Mainboard Lantai 5 L5-AI-03 Analog Input 3 3.05 V
617 07/09/2026 05:16:00 MB-L5-01Mainboard Lantai 5 L5-LUX-06 Illuminance / LUX 6 0.10 lux
618 07/09/2026 05:16:00 MB-L5-01Mainboard Lantai 5 L5-AI-06 Analog Input 6 3.05 V
619 07/09/2026 05:16:00 MB-L5-01Mainboard Lantai 5 L5-LUX-04 Illuminance / LUX 4 0.10 lux
620 07/09/2026 05:16:00 AC-REMOTE-01Remote AC AC-POWER AC Power State 1.00 state
621 07/09/2026 05:16:00 MB-L5-01Mainboard Lantai 5 L5-BGT-03 Black Globe Temperature 3 25.60 °C
622 07/09/2026 05:16:00 MB-L3-01Mainboard Lantai 3 L3-AI-06 Analog Input 6 3.12 V
623 07/09/2026 05:16:00 MB-L3-01Mainboard Lantai 3 L3-SHT-01-T SHT20 1 Temperature 27.70 °C
624 07/09/2026 05:16:00 MB-L3-01Mainboard Lantai 3 L3-RAD-02 Radiation 2 1.00 W/m²
625 07/09/2026 05:16:00 MB-L3-01Mainboard Lantai 3 L3-SHT-03-T SHT20 3 Temperature 28.20 °C
626 07/09/2026 05:16:00 MB-L3-01Mainboard Lantai 3 L3-SHT-01-RH SHT20 1 Humidity 47.30 %RH
627 07/09/2026 05:16:00 PWR-L5-01Power Meter L5 PZEM 01 PZEM-L5-01-PF PZEM L5-01 Power Factor 0.38
628 07/09/2026 05:16:00 MB-L5-01Mainboard Lantai 5 L5-SHT-02-RH SHT20 2 Humidity 46.40 %RH
629 07/09/2026 05:16:00 AC-REMOTE-01Remote AC AC-SETPOINT AC Set Temperature 23.00 °C
630 07/09/2026 05:16:00 MB-L3-01Mainboard Lantai 3 L3-LUX-01 Illuminance / LUX 1 0.20 lux
631 07/09/2026 05:16:00 MB-L5-01Mainboard Lantai 5 L5-SHT-01-T SHT20 1 Temperature 27.80 °C
632 07/09/2026 05:16:00 PWR-L5-02Power Meter L5 PZEM 02 PZEM-L5-02-VOLT PZEM L5-02 Voltage 224.60 V
633 07/09/2026 05:16:00 MB-L3-01Mainboard Lantai 3 L3-AI-02 Analog Input 2 3.12 V
634 07/09/2026 05:16:00 PWR-L5-02Power Meter L5 PZEM 02 PZEM-L5-02-CURR PZEM L5-02 Current 0.00 A
635 07/09/2026 05:16:00 MB-L5-01Mainboard Lantai 5 L5-HFT-02 Heat Flow Temperature 2 21.40 °C
636 07/09/2026 05:16:00 PWR-L5-01Power Meter L5 PZEM 01 PZEM-L5-01-ENERGY PZEM L5-01 Energy 0.12 kWh
637 07/09/2026 05:16:00 MB-L5-01Mainboard Lantai 5 L5-ST-01 Surface Temperature 1 22.40 °C
638 07/09/2026 05:16:00 AC-REMOTE-01Remote AC AC-MODE AC Operating Mode 1.00 code
639 07/09/2026 05:16:00 PWR-L5-02Power Meter L5 PZEM 02 PZEM-L5-02-POWER PZEM L5-02 Active Power 0.00 W
640 07/09/2026 05:16:00 PWR-L5-02Power Meter L5 PZEM 02 PZEM-L5-02-ENERGY PZEM L5-02 Energy 0.04 kWh
641 07/09/2026 05:16:00 MB-L5-01Mainboard Lantai 5 L5-AI-02 Analog Input 2 3.05 V
642 07/09/2026 05:16:00 PWR-L5-01Power Meter L5 PZEM 01 PZEM-L5-01-CURR PZEM L5-01 Current 0.13 A
643 07/09/2026 05:16:00 MB-L3-01Mainboard Lantai 3 L3-RAD-01 Radiation 1 1.00 W/m²
644 07/09/2026 05:16:00 MB-L5-01Mainboard Lantai 5 L5-RAD-01 Radiation 1 1.00 W/m²
645 07/09/2026 05:16:00 PWR-L5-02Power Meter L5 PZEM 02 PZEM-L5-02-FREQ PZEM L5-02 Frequency 49.90 Hz
646 07/09/2026 05:16:00 MB-L3-01Mainboard Lantai 3 L3-SHT-02-RH SHT20 2 Humidity 46.50 %RH
647 07/09/2026 05:16:00 AC-REMOTE-01Remote AC AC-FAN AC Fan Speed 0.00 code
648 07/09/2026 05:16:00 MB-L5-01Mainboard Lantai 5 L5-AI-05 Analog Input 5 3.05 V
649 07/09/2026 05:16:00 MB-L5-01Mainboard Lantai 5 L5-SHT-01-RH SHT20 1 Humidity 47.50 %RH
650 07/09/2026 05:16:00 MB-L3-01Mainboard Lantai 3 L3-AI-05 Analog Input 5 3.12 V
651 07/09/2026 05:16:00 PWR-L5-02Power Meter L5 PZEM 02 PZEM-L5-02-PF PZEM L5-02 Power Factor 0.00
652 07/09/2026 05:16:00 MB-L5-01Mainboard Lantai 5 L5-BGT-02 Black Globe Temperature 2 25.80 °C
653 07/09/2026 05:16:00 MB-L5-01Mainboard Lantai 5 L5-LUX-01 Illuminance / LUX 1 0.00 lux
654 07/09/2026 05:16:00 MB-L5-01Mainboard Lantai 5 L5-SHT-03-T SHT20 3 Temperature 28.00 °C
655 07/09/2026 05:16:00 MB-L5-01Mainboard Lantai 5 L5-LUX-02 Illuminance / LUX 2 0.20 lux
656 07/09/2026 05:16:00 MB-L3-01Mainboard Lantai 3 L3-AI-01 Analog Input 1 3.12 V
657 07/09/2026 05:16:00 MB-L5-01Mainboard Lantai 5 L5-LUX-03 Illuminance / LUX 3 0.20 lux
658 07/09/2026 05:16:00 MB-L5-01Mainboard Lantai 5 L5-HFT-01 Heat Flow Temperature 1 22.30 °C
659 07/09/2026 05:16:00 MB-L5-01Mainboard Lantai 5 L5-RAD-02 Radiation 2 1.00 W/m²
660 07/09/2026 05:16:00 MB-L5-01Mainboard Lantai 5 L5-AI-01 Analog Input 1 3.05 V
661 07/09/2026 05:16:00 MB-L3-01Mainboard Lantai 3 L3-AI-04 Analog Input 4 3.12 V
662 07/09/2026 05:16:00 MB-L5-01Mainboard Lantai 5 L5-AI-04 Analog Input 4 3.05 V
663 07/09/2026 05:16:00 PWR-L5-01Power Meter L5 PZEM 01 PZEM-L5-01-FREQ PZEM L5-01 Frequency 49.90 Hz
664 07/09/2026 05:16:00 MB-L5-01Mainboard Lantai 5 L5-BGT-01 Black Globe Temperature 1 25.90 °C
665 07/09/2026 05:16:00 WS-MOD-01Weather Station Module WS-WIND Kecepatan Angin 8.07 m/s
666 07/09/2026 05:16:00 MB-L5-01Mainboard Lantai 5 L5-SHT-03-RH SHT20 3 Humidity 47.10 %RH
667 07/09/2026 05:16:00 MB-L3-01Mainboard Lantai 3 L3-SHT-02-T SHT20 2 Temperature 28.10 °C
668 07/09/2026 05:16:00 WS-MOD-01Weather Station Module WS-DIR Arah Angin 73.00 °
669 07/09/2026 05:16:00 MB-L5-01Mainboard Lantai 5 L5-SHT-02-T SHT20 2 Temperature 28.20 °C
670 07/09/2026 05:16:00 MB-L3-01Mainboard Lantai 3 L3-LUX-04 Illuminance / LUX 4 0.10 lux
671 07/09/2026 05:16:00 PWR-L5-01Power Meter L5 PZEM 01 PZEM-L5-01-POWER PZEM L5-01 Active Power 10.60 W
672 07/09/2026 05:16:00 WS-MOD-01Weather Station Module WS-TEMP Suhu Udara 17.90 °C
673 07/09/2026 05:15:00 MB-L5-01Mainboard Lantai 5 L5-AI-06 Analog Input 6 3.05 V
674 07/09/2026 05:15:00 MB-L5-01Mainboard Lantai 5 L5-LUX-04 Illuminance / LUX 4 0.10 lux
675 07/09/2026 05:15:00 AC-REMOTE-01Remote AC AC-POWER AC Power State 1.00 state
676 07/09/2026 05:15:00 MB-L5-01Mainboard Lantai 5 L5-BGT-03 Black Globe Temperature 3 25.60 °C
677 07/09/2026 05:15:00 MB-L3-01Mainboard Lantai 3 L3-AI-06 Analog Input 6 3.12 V
678 07/09/2026 05:15:00 MB-L3-01Mainboard Lantai 3 L3-SHT-01-T SHT20 1 Temperature 27.60 °C
679 07/09/2026 05:15:00 MB-L3-01Mainboard Lantai 3 L3-RAD-02 Radiation 2 1.00 W/m²
680 07/09/2026 05:15:00 MB-L3-01Mainboard Lantai 3 L3-SHT-03-T SHT20 3 Temperature 28.10 °C
681 07/09/2026 05:15:00 MB-L3-01Mainboard Lantai 3 L3-SHT-01-RH SHT20 1 Humidity 47.30 %RH
682 07/09/2026 05:15:00 PWR-L5-01Power Meter L5 PZEM 01 PZEM-L5-01-PF PZEM L5-01 Power Factor 0.37
683 07/09/2026 05:15:00 MB-L5-01Mainboard Lantai 5 L5-SHT-02-RH SHT20 2 Humidity 46.50 %RH
684 07/09/2026 05:15:00 AC-REMOTE-01Remote AC AC-SETPOINT AC Set Temperature 23.00 °C
685 07/09/2026 05:15:00 MB-L3-01Mainboard Lantai 3 L3-LUX-01 Illuminance / LUX 1 0.20 lux
686 07/09/2026 05:15:00 MB-L5-01Mainboard Lantai 5 L5-SHT-01-T SHT20 1 Temperature 27.80 °C
687 07/09/2026 05:15:00 PWR-L5-02Power Meter L5 PZEM 02 PZEM-L5-02-VOLT PZEM L5-02 Voltage 224.80 V
688 07/09/2026 05:15:00 MB-L3-01Mainboard Lantai 3 L3-AI-02 Analog Input 2 3.12 V
689 07/09/2026 05:15:00 PWR-L5-02Power Meter L5 PZEM 02 PZEM-L5-02-CURR PZEM L5-02 Current 0.00 A
690 07/09/2026 05:15:00 MB-L5-01Mainboard Lantai 5 L5-HFT-02 Heat Flow Temperature 2 21.40 °C
691 07/09/2026 05:15:00 PWR-L5-01Power Meter L5 PZEM 01 PZEM-L5-01-ENERGY PZEM L5-01 Energy 0.12 kWh
692 07/09/2026 05:15:00 MB-L5-01Mainboard Lantai 5 L5-ST-01 Surface Temperature 1 22.40 °C
693 07/09/2026 05:15:00 AC-REMOTE-01Remote AC AC-MODE AC Operating Mode 1.00 code
694 07/09/2026 05:15:00 PWR-L5-02Power Meter L5 PZEM 02 PZEM-L5-02-POWER PZEM L5-02 Active Power 0.00 W
695 07/09/2026 05:15:00 PWR-L5-02Power Meter L5 PZEM 02 PZEM-L5-02-ENERGY PZEM L5-02 Energy 0.04 kWh
696 07/09/2026 05:15:00 MB-L5-01Mainboard Lantai 5 L5-AI-02 Analog Input 2 3.05 V
697 07/09/2026 05:15:00 PWR-L5-01Power Meter L5 PZEM 01 PZEM-L5-01-CURR PZEM L5-01 Current 0.12 A
698 07/09/2026 05:15:00 MB-L3-01Mainboard Lantai 3 L3-RAD-01 Radiation 1 1.00 W/m²
699 07/09/2026 05:15:00 MB-L5-01Mainboard Lantai 5 L5-RAD-01 Radiation 1 1.00 W/m²
700 07/09/2026 05:15:00 PWR-L5-02Power Meter L5 PZEM 02 PZEM-L5-02-FREQ PZEM L5-02 Frequency 50.00 Hz
Menampilkan maksimal 100 data per halaman